TimeMST,TemperatureF,Dew PointF,Humidity,Sea Level PressureIn,VisibilityMPH,Wind Direction,Wind SpeedMPH,Gust SpeedMPH,PrecipitationIn,Events,Conditions,WindDirDegrees,DateUTC
12:55 AM,75.9,66.0,71,29.84,10.0,ESE,4.6,-,N/A,,Clear,120,2012-10-10 07:55:00
1:55 AM,77.0,66.9,71,29.84,10.0,Calm,Calm,-,N/A,,Clear,0,2012-10-10 08:55:00
2:55 AM,77.0,66.0,69,29.83,10.0,SE,3.5,-,N/A,,Clear,130,2012-10-10 09:55:00
3:55 AM,73.9,66.0,76,29.82,10.0,ENE,5.8,-,N/A,,Clear,60,2012-10-10 10:55:00
4:55 AM,75.0,62.1,64,29.82,10.0,East,8.1,-,N/A,,Clear,80,2012-10-10 11:55:00
5:55 AM,73.9,61.0,64,29.83,10.0,NE,4.6,-,N/A,,Partly Cloudy,50,2012-10-10 12:55:00
6:55 AM,72.0,62.1,71,29.85,10.0,North,3.5,-,N/A,,Scattered Clouds,360,2012-10-10 13:55:00
7:55 AM,77.0,63.0,62,29.86,10.0,NNW,3.5,-,N/A,,Mostly Cloudy,340,2012-10-10 14:55:00
8:55 AM,79.0,64.9,62,29.87,10.0,South,6.9,-,N/A,,Mostly Cloudy,170,2012-10-10 15:55:00
9:55 AM,84.0,64.0,51,29.87,10.0,SSE,12.7,-,N/A,,Mostly Cloudy,160,2012-10-10 16:55:00
10:55 AM,87.1,64.0,46,29.86,10.0,South,10.4,18.4,N/A,,Mostly Cloudy,180,2012-10-10 17:55:00
11:55 AM,88.0,60.1,39,29.85,10.0,South,15.0,18.4,N/A,,Mostly Cloudy,180,2012-10-10 18:55:00
12:55 PM,90.0,57.0,33,29.81,10.0,South,11.5,19.6,N/A,,Mostly Cloudy,180,2012-10-10 19:55:00
1:55 PM,91.0,60.1,35,29.78,10.0,South,11.5,17.3,N/A,,Mostly Cloudy,180,2012-10-10 20:55:00
2:55 PM,91.0,57.9,33,29.75,10.0,South,11.5,-,N/A,,Mostly Cloudy,190,2012-10-10 21:55:00
3:55 PM,91.0,55.0,29,29.75,10.0,SW,15.0,-,N/A,,Mostly Cloudy,220,2012-10-10 22:55:00
4:55 PM,91.0,54.0,28,29.74,10.0,SSW,12.7,-,N/A,,Mostly Cloudy,210,2012-10-10 23:55:00
5:55 PM,87.1,57.0,36,29.74,10.0,South,12.7,-,N/A,,Scattered Clouds,170,2012-10-11 00:55:00
6:55 PM,84.0,50.0,31,29.75,10.0,South,10.4,-,N/A,,Scattered Clouds,170,2012-10-11 01:55:00
7:55 PM,82.0,52.0,35,29.76,10.0,SSE,9.2,-,N/A,,Scattered Clouds,160,2012-10-11 02:55:00
8:55 PM,79.0,53.1,40,29.78,10.0,WSW,4.6,-,N/A,,Scattered Clouds,240,2012-10-11 03:55:00
9:55 PM,78.1,57.0,48,29.78,10.0,WSW,5.8,-,N/A,,Scattered Clouds,250,2012-10-11 04:55:00
10:55 PM,77.0,48.0,36,29.78,10.0,NW,6.9,-,N/A,,Scattered Clouds,310,2012-10-11 05:55:00
11:55 PM,75.9,46.9,36,29.78,10.0,WNW,5.8,-,N/A,,Mostly Cloudy,300,2012-10-11 06:55:00